Skip Page Navigation
NASA JPL Caltech
NASA Logo - Jet Propulsion Laboratory + View the NASA Portal
+ Center for Near-Earth Object Studies
JPL Home Earth Solar System Stars & Galaxies Technology
JPL Solar System Dynamics
BODIES ORBITS EPHEMERIDES TOOLS PHYSICAL DATA DISCOVERY FAQ SITE MAP
IMPORTANT: The SSD Announcement email list is now available. Major changes are coming in the near future, including possible hostname and/or URL changes. To be notified of such changes, subscribe to this email list.

Please visit this page for more details.


JPL Small-Body Database Browser
Search: [ help ]  
14896 (1992 EB26)
Classification: Main-belt Asteroid          SPK-ID: 2014896
Ephemeris | Orbit Diagram | Orbital Elements | Mission Design | Physical Parameters | Discovery Circumstances ]

[ show orbit diagram ]
Orbital Elements at Epoch 2459000.5 (2020-May-31.0) TDB
Reference: JPL 14 (heliocentric ecliptic J2000)
 Element Value Uncertainty (1-sigma)   Units 
e .1808602776617153 8.9044e-08  
a 2.468157207945901 1.4472e-08 au
q 2.021765610004041 2.1561e-07 au
i 9.066781642915542 8.151e-06 deg
node 348.5561188987512 3.6832e-05 deg
peri 121.4818383180617 4.3057e-05 deg
M 141.0710661592609 1.957e-05 deg
tp 2458445.499847728023
(2018-Nov-22.99984773)
7.5459e-05 TDB
period 1416.307824542484
3.88
1.2457e-05
3.411e-08
d
yr
n .2541820314494784 2.2356e-09 deg/d
Q 2.91454880588776 1.7089e-08 au
  Orbit Determination Parameters
   # obs. used (total)      493  
   data-arc span      9920 days (27.16 yr)  
   first obs. used      1992-02-29  
   last obs. used      2019-04-28  
   planetary ephem.      DE431  
   SB-pert. ephem.      SB431-N16  
   condition code      0  
   norm. resid. RMS      .55908  
   source      ORB  
   producer      Otto Matic  
   solution date      2019-Jul-12 19:29:21  

Additional Information
 Earth MOID = 1.05468 au 
 Jupiter MOID = 2.22245 au 
 T_jup = 3.446 
[ hide covariance matrix ]
Orbital Elements at Epoch 2457115.5 (2015-Apr-03.0) TDB
Reference: JPL 14 (heliocentric ecliptic J2000)
 Element Value Uncertainty (1-sigma)   Units 
e .1819402259738165 8.9314e-08  
q 2.018647693746507 2.1724e-07 au
tp 2457030.917448227908
(2015-Jan-08.41744823)
7.2514e-05 TDB
node 348.5945417476428 3.6834e-05 deg
peri 121.542280526432 4.2891e-05 deg
i 9.068559809700321 8.1515e-06 deg
  Orbit Determination Parameters
   # obs. used (total)      493  
   data-arc span      9920 days (27.16 yr)  
   first obs. used      1992-02-29  
   last obs. used      2019-04-28  
   planetary ephem.      DE431  
   SB-pert. ephem.      SB431-N16  
   condition code      0  
   norm. resid. RMS      .55908  
   source      ORB  
   producer      Otto Matic  
   solution date      2019-Jul-12 19:29:21  

Additional Information
 Jupiter MOID = 2.22245 au 
 T_jup = 3.446 
Orbit Covariance (6×6)
  e q tp node peri i
e 7.977074807073581E-15 -1.93765619750421E-14 4.210182977643662E-12 4.680705710956059E-15 1.385133995751791E-12 -4.973411099976514E-14
q -1.93765619750421E-14 4.719134229528319E-14 -1.034939964956517E-11 -1.120221845033514E-14 -3.398706604900516E-12 1.201534684886038E-13
tp 4.210182977643662E-12 -1.034939964956517E-11 5.258292434169323E-9 -5.530261848516702E-12 1.617864073296863E-9 -2.570551540868101E-11
node 4.680705710956059E-15 -1.120221845033514E-14 -5.530261848516702E-12 1.356763523349281E-9 -1.340866092209535E-9 -1.43162271004801E-10
peri 1.385133995751791E-12 -3.398706604900516E-12 1.617864073296863E-9 -1.340866092209535E-9 1.839601302891714E-9 1.330014416922346E-10
i -4.973411099976514E-14 1.201534684886038E-13 -2.570551540868101E-11 -1.43162271004801E-10 1.330014416922346E-10 6.644709601557937E-11

Ephemeris | Orbit Diagram | Orbital Elements | Mission Design | Physical Parameters | Discovery Circumstances ]

Physical Parameter Table
Parameter Symbol Value Units Sigma Reference Notes
absolute magnitude H 15.6   n/a MPO467851  

14896 (1992 EB26)          Discovered 1992-Mar-08 by UESAC at La Silla
Reference: 20000523/Numbers.arcLast Updated: 2004-04-19

Alternate Designations
 1992 EB26 = 1996 FA3 
Ephemeris | Orbit Diagram | Orbital Elements | Mission Design | Physical Parameters | Discovery Circumstances ]
ABOUT SSD CREDITS/AWARDS PRIVACY/COPYRIGHT GLOSSARY LINKS
FirstGov 2020-Apr-09 21:33 UT
(server date/time)  
NASA Home Page
Site Manager:   Ryan S. Park
Webmaster  Alan B. Chamberlin